Torna al catalogo

NIMBUS 2 DEB

AttivoLEO
NORAD 25825·DEBRIS·🇺🇸 United States

Lanciato May 15, 1966 da Vandenberg Space Force Base

Loading…

Prossimi Passaggi (prossime 24 ore)

TLE

AggiornatoSource: Space-Track

Epoca: Sep 14, 2026, 04:22 UTC

1 25825U 66040H   26257.18242236  .00001989  00000-0  22872-2 0  9998
2 25825 100.3311 343.8063 0043349 304.0942  85.6341 13.70504373949478

Traccia NIMBUS 2 DEB in tempo reale con AllMySat

Download on the App Store